To NAV CANADA Home Page Login to a new session Search on AWWS site Feedback and Comments Disclaimer Vers la page française équivalente Tips FAQ What's new on the site To the Forecasts and Observations / NOTAM section To "File a Flight Plan" website Publications and other links Update of the User's profile FIC Telephone Numbers My Weather Data Folder Route Weather Data Regional Weather Data Local Weather Data To the Forecasts and Observations / NOTAM section
Request Generated 06/26/2017 at 22:35:58 UTC . Weather information available at that time is displayed.

METAR/TAF

MAKKOVIK/NL    

LWIS CYFT 262200Z AUTO 26017G24KT 16/M01 A2954=
LWIS CYFT 262100Z AUTO 28015G22KT 16/00 A2953=
METAR CYFT 262000Z 28017G25KT 15SM BKN025 16/00 A2953 RMK CU6 LAST
OBS/NEXT270900 UTC SLP005 DENSITY ALT 900FT=

CYFT - No TAF is issued for this station

Your time UTC time
Weather data provided by Environment Canada and NAV CANADA